Location: Dorchester
(45.9077°N, 64.5103°W)
Time: 15:16:22
(UTC+00:00)

X-37B - Visible Passes

Search period start: 02 December 2021 00:00
Search period end: 12 December 2021 00:00
Orbit: 330 x 341 km, 45.0° (Epoch: 20 November)

Date Brightness Start Highest point End Pass type
(mag) Time Alt. Az. Time Alt. Az. Time Alt. Az.
05 Dec 3.3 22:43:31 10° SSW 22:43:42 11° S 22:43:42 11° S visible
06 Dec 3.5 23:03:01 10° SW 23:03:24 13° SW 23:03:24 13° SW visible
07 Dec 2.5 21:48:57 10° SSW 21:50:50 16° SSE 21:51:49 14° SE visible
08 Dec 1.5 22:08:27 10° SW 22:11:02 31° SSE 22:11:25 30° SE visible
09 Dec 1.1 22:28:33 10° WSW 22:30:58 47° SSW 22:30:58 47° SSW visible
10 Dec 1.7 21:13:53 10° SW 21:16:28 31° SSE 21:19:04 10° E visible
10 Dec 2.4 22:48:54 10° W 22:50:30 29° WSW 22:50:30 29° WSW visible
11 Dec 0.8 21:33:59 10° WSW 21:36:48 53° SSE 21:38:49 17° E visible
11 Dec 3.5 23:09:20 10° W 23:10:03 16° W 23:10:03 16° W visible
